• In Hungary
  • List of Countries
  • For 7 days
  • Water Temperature
  • Satellite Maps
  • Weather Map
  • News
  • Weather Widgets
  • user-avatar
    Login

    Hourly Weather Majkop

    Today, 17 January, Wednesday

    Time Temperature Precipitation Wind Pressure Humidity
    00:00 -1°C° 0 mm 2 mps 732 mmHg 77%
    01:00 -1°C° 0.2 mm 2 mps 732 mmHg 78%
    02:00 +1°C° 0.2 mm 2 mps 731 mmHg 79%
    03:00 +1°C° 0.2 mm 2 mps 731 mmHg 80%
    04:00 +1°C° 0.3 mm 2 mps 731 mmHg 81%
    05:00 +1°C° 0.3 mm 2 mps 730 mmHg 81%
    06:00 +1°C° 0.3 mm 2 mps 730 mmHg 82%
    07:00 +2°C° 0.2 mm 2 mps 730 mmHg 82%
    08:00 +2°C° 0.2 mm 2 mps 730 mmHg 82%
    09:00 +2°C° 0.2 mm 2 mps 730 mmHg 82%
    10:00 +3°C° 0.2 mm 2 mps 730 mmHg 83%
    11:00 +3°C° 0.2 mm 2 mps 730 mmHg 84%
    12:00 +4°C° 0.2 mm 2 mps 730 mmHg 84%
    13:00 +4°C° 0.2 mm 2 mps 729 mmHg 85%
    14:00 +4°C° 0.2 mm 2 mps 729 mmHg 86%
    15:00 +5°C° 0.2 mm 1 mps 729 mmHg 86%
    16:00 +4°C° 0 mm 2 mps 729 mmHg 86%
    17:00 +3°C° 0 mm 2 mps 729 mmHg 87%
    18:00 +2°C° 0 mm 2 mps 729 mmHg 87%
    19:00 +2°C° 0 mm 2 mps 729 mmHg 86%
    20:00 +2°C° 0 mm 2 mps 728 mmHg 85%
    21:00 +2°C° 0 mm 2 mps 728 mmHg 84%
    22:00 +1°C° 0 mm 2 mps 728 mmHg 83%
    23:00 +1°C° 0 mm 2 mps 727 mmHg 82%

    Tomorrow, 18 January, Thursday

    Time Temperature Precipitation Wind Pressure Humidity
    00:00 +1°C° 0 mm 2 mps 727 mmHg 81%
    01:00 +1°C° 0 mm 2 mps 727 mmHg 81%
    02:00 +1°C° 0 mm 2 mps 726 mmHg 80%
    03:00 +1°C° 0 mm 2 mps 726 mmHg 80%
    04:00 +2°C° 0 mm 2 mps 725 mmHg 79%
    05:00 +1°C° 0 mm 3 mps 724 mmHg 79%
    06:00 +1°C° 0 mm 3 mps 723 mmHg 78%
    07:00 +1°C° 0 mm 3 mps 723 mmHg 77%
    08:00 +1°C° 0 mm 3 mps 722 mmHg 76%
    09:00 +2°C° 0 mm 3 mps 722 mmHg 75%
    10:00 +3°C° 0.1 mm 3 mps 721 mmHg 76%
    11:00 +4°C° 0.1 mm 3 mps 721 mmHg 77%
    12:00 +5°C° 0.1 mm 3 mps 720 mmHg 78%
    13:00 +5°C° 0.1 mm 3 mps 719 mmHg 79%
    14:00 +5°C° 0.1 mm 3 mps 719 mmHg 80%
    15:00 +5°C° 0.1 mm 3 mps 718 mmHg 81%
    16:00 +4°C° 0.3 mm 3 mps 718 mmHg 82%
    17:00 +4°C° 0.3 mm 3 mps 718 mmHg 83%
    18:00 +4°C° 0.3 mm 3 mps 718 mmHg 85%
    19:00 +4°C° 1.1 mm 2 mps 718 mmHg 87%
    20:00 +4°C° 1.1 mm 2 mps 718 mmHg 90%
    21:00 +4°C° 1.1 mm 2 mps 718 mmHg 92%
    22:00 +5°C° 1.3 mm 1 mps 718 mmHg 93%
    23:00 +4°C° 1.3 mm 1 mps 719 mmHg 94%

    Day after tomorrow, 19 January, Friday

    Time Temperature Precipitation Wind Pressure Humidity
    00:00 +4°C° 1.3 mm 1 mps 719 mmHg 96%
    01:00 +4°C° 1.6 mm 1 mps 720 mmHg 96%
    02:00 +4°C° 1.6 mm 1 mps 720 mmHg 96%
    03:00 +4°C° 1.6 mm 1 mps 721 mmHg 96%
    04:00 +4°C° 1.2 mm 1 mps 721 mmHg 95%
    05:00 +3°C° 1.2 mm 2 mps 722 mmHg 95%
    06:00 +3°C° 1.2 mm 2 mps 723 mmHg 94%
    07:00 +2°C° 0.6 mm 2 mps 724 mmHg 93%
    08:00 +2°C° 0.6 mm 2 mps 725 mmHg 91%
    09:00 +2°C° 0.6 mm 2 mps 726 mmHg 90%
    10:00 +3°C° 0.1 mm 2 mps 727 mmHg 88%
    11:00 +2°C° 0.1 mm 3 mps 728 mmHg 86%
    12:00 +3°C° 0.1 mm 3 mps 728 mmHg 85%
    13:00 +3°C° 0.1 mm 3 mps 729 mmHg 84%
    14:00 +3°C° 0.1 mm 3 mps 729 mmHg 84%
    15:00 +3°C° 0.1 mm 3 mps 730 mmHg 83%
    16:00 +3°C° 0 mm 3 mps 730 mmHg 84%
    17:00 +2°C° 0 mm 3 mps 731 mmHg 84%
    18:00 +1°C° 0 mm 3 mps 732 mmHg 84%
    19:00 0°C° 0 mm 3 mps 732 mmHg 83%
    20:00 0°C° 0 mm 3 mps 733 mmHg 82%
    21:00 0°C° 0 mm 3 mps 733 mmHg 81%
    22:00 -1°C° 0 mm 3 mps 733 mmHg 79%
    23:00 -1°C° 0 mm 3 mps 733 mmHg 77%

    20 January, Saturday

    Time Temperature Precipitation Wind Pressure Humidity
    00:00 -2°C° 0 mm 4 mps 734 mmHg 75%
    01:00 0°C° 0 mm 3 mps 734 mmHg 74%
    02:00 0°C° 0 mm 3 mps 734 mmHg 73%
    03:00 0°C° 0 mm 3 mps 734 mmHg 72%
    04:00 0°C° 0 mm 3 mps 734 mmHg 71%
    05:00 0°C° 0 mm 3 mps 734 mmHg 70%
    06:00 0°C° 0 mm 3 mps 734 mmHg 69%
    07:00 +1°C° 0 mm 3 mps 735 mmHg 69%
    08:00 +1°C° 0 mm 3 mps 735 mmHg 69%
    09:00 +2°C° 0 mm 3 mps 735 mmHg 69%
    10:00 +4°C° 0 mm 2 mps 735 mmHg 70%
    11:00 +5°C° 0 mm 2 mps 735 mmHg 72%
    12:00 +6°C° 0 mm 2 mps 735 mmHg 73%
    13:00 +7°C° 0 mm 2 mps 735 mmHg 74%
    14:00 +8°C° 0 mm 1 mps 734 mmHg 76%
    15:00 +8°C° 0 mm 1 mps 734 mmHg 77%
    16:00 +7°C° 0 mm 1 mps 734 mmHg 77%
    17:00 +5°C° 0 mm 1 mps 734 mmHg 78%
    18:00 +3°C° 0 mm 2 mps 734 mmHg 78%
    19:00 +3°C° 0 mm 2 mps 734 mmHg 76%
    20:00 +3°C° 0 mm 2 mps 733 mmHg 74%
    21:00 +2°C° 0 mm 2 mps 733 mmHg 72%
    22:00 +3°C° 0 mm 2 mps 733 mmHg 70%
    23:00 +3°C° 0 mm 2 mps 733 mmHg 68%

    21 January, Sunday

    Time Temperature Precipitation Wind Pressure Humidity
    00:00 +3°C° 0 mm 2 mps 732 mmHg 66%
    01:00 +3°C° 0 mm 2 mps 732 mmHg 65%
    02:00 +3°C° 0 mm 2 mps 732 mmHg 64%
    03:00 +3°C° 0 mm 2 mps 732 mmHg 63%
    04:00 +4°C° 0 mm 2 mps 731 mmHg 62%
    05:00 +3°C° 0 mm 3 mps 731 mmHg 61%
    06:00 +3°C° 0 mm 3 mps 731 mmHg 60%
    07:00 +4°C° 0 mm 3 mps 731 mmHg 59%
    08:00 +4°C° 0 mm 3 mps 730 mmHg 59%
    09:00 +4°C° 0 mm 3 mps 730 mmHg 59%
    10:00 +7°C° 0 mm 3 mps 730 mmHg 60%
    11:00 +9°C° 0 mm 2 mps 730 mmHg 61%
    12:00 +10°C° 0 mm 2 mps 730 mmHg 61%
    13:00 +10°C° 0 mm 2 mps 730 mmHg 62%
    14:00 +10°C° 0 mm 2 mps 730 mmHg 63%
    15:00 +10°C° 0 mm 2 mps 730 mmHg 64%
    16:00 +9°C° 0 mm 2 mps 730 mmHg 65%
    17:00 +8°C° 0 mm 2 mps 730 mmHg 66%
    18:00 +6°C° 0 mm 2 mps 730 mmHg 67%
    19:00 +6°C° 0 mm 2 mps 730 mmHg 68%
    20:00 +5°C° 0 mm 2 mps 730 mmHg 68%
    21:00 +5°C° 0 mm 2 mps 731 mmHg 69%
    22:00 +5°C° 0 mm 2 mps 730 mmHg 70%
    23:00 +5°C° 0 mm 2 mps 730 mmHg 70%

    22 January, Monday

    Time Temperature Precipitation Wind Pressure Humidity
    00:00 +4°C° 0 mm 2 mps 730 mmHg 70%
    01:00 +4°C° 0 mm 2 mps 729 mmHg 69%
    02:00 +4°C° 0 mm 2 mps 729 mmHg 68%
    03:00 +4°C° 0 mm 2 mps 729 mmHg 68%
    04:00 +4°C° 0 mm 2 mps 728 mmHg 68%
    05:00 +5°C° 0 mm 1 mps 728 mmHg 68%
    06:00 +5°C° 0 mm 1 mps 727 mmHg 68%
    07:00 +5°C° 0 mm 1 mps 727 mmHg 68%
    08:00 +5°C° 0 mm 1 mps 727 mmHg 68%
    09:00 +6°C° 0 mm 1 mps 727 mmHg 68%
    10:00 +7°C° 0 mm 1 mps 726 mmHg 69%
    11:00 +8°C° 0 mm 1 mps 726 mmHg 70%
    12:00 +9°C° 0 mm 1 mps 726 mmHg 72%
    13:00 +9°C° 0 mm 1 mps 726 mmHg 73%
    14:00 +9°C° 0 mm 1 mps 726 mmHg 74%
    15:00 +9°C° 0 mm 1 mps 726 mmHg 75%
    16:00 +8°C° 0 mm 1 mps 726 mmHg 76%
    17:00 +7°C° 0 mm 1 mps 726 mmHg 77%
    18:00 +6°C° 0 mm 1 mps 726 mmHg 78%
    19:00 +6°C° 0 mm 1 mps 726 mmHg 76%
    20:00 +6°C° 0 mm 1 mps 726 mmHg 75%
    21:00 +4°C° 0 mm 2 mps 727 mmHg 74%
    22:00 +4°C° 0 mm 2 mps 727 mmHg 74%
    23:00 +4°C° 0 mm 2 mps 727 mmHg 74%
    Show more